Weather History for McComb, MS

Change the Weather History Date:

Friday, March 29, 2013

  Actual Average Record
Temperature  
Mean Temperature 58 °F -  
Max Temperature 75 °F 73 °F 86 °F (1974)
Min Temperature 41 °F 51 °F 34 °F (1955)
Degree Days  
Heating Degree Days 7    
Growing Degree Days 8 (Base 50)    
Moisture  
Dew Point 44 °F    
Average Humidity 63    
Maximum Humidity 93    
Minimum Humidity 27    
Precipitation  
Precipitation 0.00 in - - ()
Sea Level Pressure  
Sea Level Pressure 30.24 in    
Wind  
Wind Speed 4 mph (South)    
Max Wind Speed 16 mph    
Max Gust Speed 20 mph    
Visibility 9 miles    
Events      
Averages and records for this station are not official NWS values.
T = Trace of Precipitation, MM = Missing Value Source: NWS Daily Summary

Daily Weather History Graph

Daily Weather History Graph

Search for Another Location

Airport:

Trip Planner

Search our weather history database for the weather conditions in past years. The results will help you decide how hot, cold, wet, or windy it might be!

Date:

Astronomy

Mar. 29, 2013 Rise Set
Actual Time 6:54 AM CDT 7:19 PM CDT
Civil Twilight 6:29 AM CDT 7:43 PM CDT
Nautical Twilight 6:01 AM CDT 8:12 PM CDT
Astronomical Twilight 5:32 AM CDT 8:41 PM CDT
Moon 10:06 PM CDT (3/29) 8:14 AM CDT (3/29)
Length of Visible Light 13h 13m
Length of Day
12h 25m
Waning Gibbous, 93% of the Moon is Illuminated
Mar 29
Waning Gibbous
Apr 2
Last Quarter
Apr 10
New
Apr 18
First Quarter
Apr 25
Full

Hourly Weather History & Observations

Time (CDT) Temp. Dew Point Humidity Pressure Visibility Wind Dir Wind Speed Gust Speed Precip Events Conditions
12:53 AM 50.0 °F 42.1 °F 74% 30.28 in 10.0 mi Calm Calm - N/A   Clear
1:53 AM 46.9 °F 42.1 °F 83% 30.28 in 10.0 mi Calm Calm - N/A   Clear
2:53 AM 45.0 °F 41.0 °F 86% 30.27 in 10.0 mi Calm Calm - N/A   Clear
3:53 AM 42.1 °F 39.9 °F 92% 30.27 in 9.0 mi Calm Calm - N/A   Clear
4:53 AM 42.1 °F 39.0 °F 89% 30.27 in 9.0 mi Calm Calm - N/A   Clear
5:53 AM 41.0 °F 39.0 °F 93% 30.27 in 4.0 mi Calm Calm - N/A   Clear
6:53 AM 41.0 °F 39.0 °F 93% 30.29 in 6.0 mi Calm Calm - N/A   Clear
7:53 AM 44.1 °F 42.1 °F 93% 30.30 in 5.0 mi Calm Calm - N/A   Clear
8:53 AM 52.0 °F 46.0 °F 80% 30.30 in 7.0 mi SSE 3.5 mph - N/A   Clear
9:53 AM 64.0 °F 44.1 °F 48% 30.30 in 10.0 mi South 6.9 mph - N/A   Clear
10:53 AM 66.0 °F 39.0 °F 37% 30.29 in 10.0 mi South 9.2 mph - N/A   Clear
11:53 AM 70.0 °F 36.0 °F 29% 30.27 in 10.0 mi SSE 12.7 mph 19.6 mph N/A   Clear
12:53 PM 72.0 °F 36.0 °F 27% 30.25 in 10.0 mi South 16.1 mph - N/A   Clear
1:53 PM 73.0 °F 41.0 °F 31% 30.22 in 10.0 mi South 9.2 mph - N/A   Clear
2:53 PM 75.0 °F 42.1 °F 31% 30.19 in 10.0 mi South 10.4 mph - N/A   Clear
3:53 PM 75.0 °F 42.1 °F 31% 30.17 in 10.0 mi Variable 5.8 mph - N/A   Partly Cloudy
4:53 PM 73.9 °F 43.0 °F 33% 30.17 in 10.0 mi West 5.8 mph - N/A   Mostly Cloudy
5:53 PM 72.0 °F 46.9 °F 41% 30.17 in 10.0 mi SW 8.1 mph - N/A   Clear
6:53 PM 69.1 °F 50.0 °F 51% 30.17 in 10.0 mi South 6.9 mph - N/A   Clear
7:53 PM 64.9 °F 52.0 °F 63% 30.19 in 10.0 mi South 6.9 mph - N/A   Overcast
8:53 PM 63.0 °F 51.1 °F 65% 30.19 in 10.0 mi South 10.4 mph - N/A   Partly Cloudy
9:53 PM 60.1 °F 52.0 °F 75% 30.20 in 10.0 mi South 8.1 mph - N/A   Clear
10:53 PM 57.9 °F 52.0 °F 81% 30.20 in 10.0 mi SSE 4.6 mph - N/A   Clear
11:53 PM 55.9 °F 51.1 °F 84% 30.19 in 10.0 mi South 5.8 mph - N/A   Clear